Hourly Data Report for September 01, 2017

All times are specified in Local Standard Time (LST). Add 1 hour to adjust for Daylight Saving Time where and when it is observed.

CORAL HARBOUR A
NUNAVUT

64°11'36.000" N
83°21'34.000" W
62.20 m
2301002
71915
YZS

Download Data

Hourly Data (September 2017)
Hourly Data Report for September 1, 2017
Temp Definition
°C
Dew Point Temp Definition
°C
Rel Hum Definition
%
Wind Dir Definition
10's deg

Wind Spd Definition
km/h
Visibility Definition
km
Stn Press Definition
kPa
Hmdx Definition


Wind Chill Definition


Weather Definition


TIME
00:00 Legend Double Dagger 9.1 7.0 87 25 31 24.1 99.59     LegendNANA
01:00 Legend Double Dagger 9.2 6.8 85 24 33 24.1 99.59     Mostly Cloudy
02:00 Legend Double Dagger 8.3 6.8 90 22 18 24.1 99.54     LegendNANA
03:00 Legend Double Dagger 8.0 6.9 93 21 21 24.1 99.52     LegendNANA
04:00 Legend Double Dagger 7.5 6.7 95 20 24 24.1 99.44     Mostly Cloudy
05:00
06:00
07:00 Legend Double Dagger 7.3 6.5 94 13 7 24.1 99.33     Rain
08:00 Legend Double Dagger 7.5 6.7 94 15 12 12.9 99.33     LegendNANA
09:00 Legend Double Dagger 7.7 6.8 94 17 10 6.4 99.30     Fog
10:00 Legend Double Dagger 7.8 6.9 94 15 12 6.4 99.24     Fog
11:00 Legend Double Dagger 7.7 7.0 95 17 19 9.7 99.22     Fog
12:00 Legend Double Dagger 7.9 7.2 95 18 10 6.4 99.17     Fog
13:00 Legend Double Dagger 8.1 7.3 95 13 4 6.4 99.15     Fog
14:00 Legend Double Dagger 8.1 7.5 96 10 10 4.0 99.17     Rain,Fog
15:00 Legend Double Dagger 8.1 7.5 96 10 17 9.7 99.16     Rain,Fog
16:00 Legend Double Dagger 8.2 7.7 96 7 26 16.1 99.17     Cloudy
17:00 Legend Double Dagger 8.8 7.9 94 9 23 19.3 99.24     LegendNANA
18:00 Legend Double Dagger 7.6 5.8 88 6 23 24.1 99.30     LegendNANA
19:00 Legend Double Dagger 6.5 4.5 88 5 28 24.1 99.27     Cloudy
20:00 Legend Double Dagger 5.3 3.2 86 5 36 24.1 99.31     LegendNANA
21:00 Legend Double Dagger 4.6 2.4 85 8 28 24.1 99.35     LegendNANA
22:00 Legend Double Dagger 4.4 1.1 79 7 34 24.1 99.33     Cloudy
23:00 Legend Double Dagger 3.8 0.2 77 7 30 24.1 99.35     LegendNANA

Notes on Data Quality.

Legend

  • E = Estimated
  • M = Missing
  • NA = Not Available
  • ‡ = Partner data that is not subject to review by the National Climate Archives
Date modified: